When you browse on this site, cookies collect data to enhance your experience and personalize the content and advertising you see.
Visit our Privacy Policy to learn more. By continuing to use the site, you agree to this use of cookies and data.
  • en France
  • Liste des pays
  • À 7 jours
  • Température de l'eau
  • Carte météo
  • Widgets météo
  • user-avatar
    Se connecter

    Météo par heure à Stupishino

    Ce jour, 8 Avril, Mercredi

    Heure Température Précipitation Vent Pression Humidité
    00:00 +6°C° 0 mm 5 m/s 755 mmHg 71%
    01:00 +4°C° 0 mm 6 m/s 754 mmHg 70%
    02:00 +4°C° 0 mm 6 m/s 754 mmHg 70%
    03:00 +4°C° 0 mm 6 m/s 753 mmHg 69%
    04:00 +4°C° 0 mm 7 m/s 752 mmHg 69%
    05:00 +4°C° 0 mm 7 m/s 751 mmHg 68%
    06:00 +5°C° 0 mm 7 m/s 750 mmHg 65%
    07:00 +6°C° 0 mm 8 m/s 749 mmHg 61%
    08:00 +7°C° 0 mm 8 m/s 749 mmHg 58%
    09:00 +7°C° 0 mm 8 m/s 748 mmHg 59%
    10:00 +9°C° 0 mm 8 m/s 748 mmHg 61%
    11:00 +9°C° 0 mm 7 m/s 748 mmHg 62%
    12:00 +9°C° 0.1 mm 7 m/s 748 mmHg 61%
    13:00 +9°C° 0.1 mm 7 m/s 748 mmHg 60%
    14:00 +10°C° 0.1 mm 7 m/s 748 mmHg 60%
    15:00 +9°C° 0 mm 7 m/s 748 mmHg 62%
    16:00 +9°C° 0 mm 6 m/s 749 mmHg 64%
    17:00 +9°C° 0 mm 6 m/s 749 mmHg 66%
    18:00 +8°C° 0 mm 5 m/s 749 mmHg 72%
    19:00 +7°C° 0 mm 4 m/s 749 mmHg 78%
    20:00 +6°C° 0 mm 4 m/s 749 mmHg 84%
    21:00 +5°C° 0 mm 4 m/s 750 mmHg 86%
    22:00 +5°C° 0 mm 4 m/s 750 mmHg 87%
    23:00 +5°C° 0 mm 4 m/s 750 mmHg 88%

    Demain, 9 Avril, Jeudi

    Heure Température Précipitation Vent Pression Humidité
    00:00 +4°C° 0 mm 3 m/s 750 mmHg 90%
    01:00 +3°C° 0 mm 3 m/s 750 mmHg 91%
    02:00 +4°C° 0 mm 2 m/s 750 mmHg 93%
    03:00 +3°C° 0 mm 2 m/s 750 mmHg 92%
    04:00 +3°C° 0 mm 2 m/s 750 mmHg 91%
    05:00 +3°C° 0 mm 2 m/s 750 mmHg 91%
    06:00 +5°C° 0 mm 1 m/s 750 mmHg 84%
    07:00 +6°C° 0 mm 1 m/s 750 mmHg 78%
    08:00 +7°C° 0 mm 1 m/s 749 mmHg 71%
    09:00 +7°C° 0 mm 2 m/s 749 mmHg 66%
    10:00 +8°C° 0 mm 2 m/s 749 mmHg 61%
    11:00 +10°C° 0 mm 2 m/s 748 mmHg 56%
    12:00 +11°C° 0 mm 3 m/s 748 mmHg 53%
    13:00 +12°C° 0 mm 3 m/s 747 mmHg 51%
    14:00 +13°C° 0 mm 3 m/s 747 mmHg 48%
    15:00 +12°C° 0 mm 4 m/s 746 mmHg 51%
    16:00 +12°C° 0 mm 4 m/s 746 mmHg 53%
    17:00 +12°C° 0 mm 4 m/s 745 mmHg 56%
    18:00 +11°C° 0 mm 4 m/s 745 mmHg 60%
    19:00 +10°C° 0 mm 3 m/s 744 mmHg 65%
    20:00 +9°C° 0 mm 3 m/s 744 mmHg 69%
    21:00 +8°C° 0 mm 4 m/s 743 mmHg 70%
    22:00 +8°C° 0 mm 4 m/s 743 mmHg 70%
    23:00 +7°C° 0 mm 4 m/s 742 mmHg 71%

    Après-demain, 10 Avril, Vendredi

    Heure Température Précipitation Vent Pression Humidité
    00:00 +7°C° 0 mm 5 m/s 742 mmHg 70%
    01:00 +7°C° 0 mm 5 m/s 741 mmHg 70%
    02:00 +7°C° 0 mm 5 m/s 741 mmHg 70%
    03:00 +7°C° 0.2 mm 5 m/s 741 mmHg 75%
    04:00 +7°C° 0.2 mm 5 m/s 740 mmHg 81%
    05:00 +7°C° 0.2 mm 5 m/s 740 mmHg 87%
    06:00 +7°C° 0.3 mm 4 m/s 740 mmHg 85%
    07:00 +7°C° 0.3 mm 4 m/s 740 mmHg 83%
    08:00 +7°C° 0.3 mm 4 m/s 740 mmHg 81%
    09:00 +9°C° 0.1 mm 3 m/s 740 mmHg 75%
    10:00 +10°C° 0.1 mm 3 m/s 740 mmHg 69%
    11:00 +10°C° 0.1 mm 3 m/s 740 mmHg 64%
    12:00 +10°C° 0.3 mm 4 m/s 741 mmHg 67%
    13:00 +8°C° 0.3 mm 5 m/s 741 mmHg 70%
    14:00 +7°C° 0.3 mm 6 m/s 741 mmHg 73%
    15:00 +7°C° 0.1 mm 6 m/s 741 mmHg 68%
    16:00 +7°C° 0.1 mm 6 m/s 741 mmHg 63%
    17:00 +7°C° 0.1 mm 6 m/s 741 mmHg 59%
    18:00 +6°C° 0 mm 5 m/s 742 mmHg 61%
    19:00 +5°C° 0 mm 5 m/s 742 mmHg 63%
    20:00 +4°C° 0 mm 4 m/s 742 mmHg 65%
    21:00 +4°C° 0 mm 4 m/s 743 mmHg 67%
    22:00 +3°C° 0 mm 4 m/s 743 mmHg 70%
    23:00 +3°C° 0 mm 4 m/s 743 mmHg 73%

    11 Avril, Samedi

    Heure Température Précipitation Vent Pression Humidité
    00:00 +1°C° 0 mm 4 m/s 743 mmHg 74%
    01:00 +1°C° 0 mm 4 m/s 744 mmHg 75%
    02:00 0°C° 0 mm 4 m/s 744 mmHg 76%
    03:00 0°C° 0 mm 4 m/s 744 mmHg 77%
    04:00 0°C° 0 mm 3 m/s 744 mmHg 78%
    05:00 -1°C° 0 mm 3 m/s 744 mmHg 79%
    06:00 0°C° 0 mm 4 m/s 745 mmHg 73%
    07:00 +1°C° 0 mm 4 m/s 745 mmHg 66%
    08:00 +2°C° 0 mm 5 m/s 745 mmHg 60%
    09:00 +3°C° 0.2 mm 6 m/s 745 mmHg 60%
    10:00 +3°C° 0.2 mm 6 m/s 745 mmHg 60%
    11:00 +3°C° 0.2 mm 7 m/s 745 mmHg 60%
    12:00 +3°C° 0 mm 7 m/s 745 mmHg 54%
    13:00 +4°C° 0 mm 8 m/s 745 mmHg 49%
    14:00 +4°C° 0 mm 8 m/s 746 mmHg 44%
    15:00 +4°C° 0.1 mm 8 m/s 746 mmHg 46%
    16:00 +2°C° 0.1 mm 8 m/s 746 mmHg 49%
    17:00 +2°C° 0.1 mm 8 m/s 746 mmHg 51%
    18:00 +2°C° 0 mm 7 m/s 747 mmHg 53%
    19:00 0°C° 0 mm 7 m/s 748 mmHg 55%
    20:00 -1°C° 0 mm 6 m/s 749 mmHg 57%
    21:00 -1°C° 0 mm 5 m/s 749 mmHg 58%
    22:00 -1°C° 0 mm 5 m/s 750 mmHg 59%
    23:00 -2°C° 0 mm 5 m/s 750 mmHg 61%

    12 Avril, Dimanche

    Heure Température Précipitation Vent Pression Humidité
    00:00 -2°C° 0 mm 5 m/s 750 mmHg 61%
    01:00 -3°C° 0 mm 4 m/s 751 mmHg 61%
    02:00 -3°C° 0 mm 4 m/s 751 mmHg 61%
    03:00 -3°C° 0 mm 4 m/s 751 mmHg 61%
    04:00 -3°C° 0 mm 4 m/s 752 mmHg 62%
    05:00 -3°C° 0 mm 4 m/s 752 mmHg 62%
    06:00 -2°C° 0 mm 4 m/s 752 mmHg 56%
    07:00 -1°C° 0 mm 4 m/s 752 mmHg 49%
    08:00 0°C° 0 mm 4 m/s 752 mmHg 42%
    09:00 +1°C° 0 mm 4 m/s 752 mmHg 39%
    10:00 +3°C° 0 mm 4 m/s 752 mmHg 36%
    11:00 +4°C° 0 mm 4 m/s 752 mmHg 33%
    12:00 +4°C° 0 mm 4 m/s 752 mmHg 33%
    13:00 +5°C° 0 mm 4 m/s 752 mmHg 33%
    14:00 +5°C° 0 mm 4 m/s 751 mmHg 34%
    15:00 +5°C° 0 mm 4 m/s 751 mmHg 36%
    16:00 +5°C° 0 mm 4 m/s 751 mmHg 38%
    17:00 +5°C° 0 mm 3 m/s 750 mmHg 41%
    18:00 +4°C° 0 mm 3 m/s 750 mmHg 46%
    19:00 +3°C° 0 mm 3 m/s 750 mmHg 52%
    20:00 +3°C° 0 mm 2 m/s 750 mmHg 57%
    21:00 +2°C° 0 mm 3 m/s 750 mmHg 59%
    22:00 +1°C° 0 mm 3 m/s 750 mmHg 61%
    23:00 +1°C° 0 mm 3 m/s 749 mmHg 63%

    13 Avril, Lundi

    Heure Température Précipitation Vent Pression Humidité
    00:00 +1°C° 0 mm 3 m/s 749 mmHg 65%
    01:00 0°C° 0 mm 3 m/s 749 mmHg 66%
    02:00 -1°C° 0 mm 4 m/s 749 mmHg 68%
    03:00 -1°C° 0 mm 4 m/s 749 mmHg 67%
    04:00 -1°C° 0 mm 4 m/s 749 mmHg 67%
    05:00 -1°C° 0 mm 4 m/s 748 mmHg 67%
    06:00 +1°C° 0 mm 5 m/s 748 mmHg 62%
    07:00 +3°C° 0 mm 5 m/s 748 mmHg 56%
    08:00 +4°C° 0 mm 6 m/s 748 mmHg 51%
    09:00 +7°C° 0 mm 6 m/s 748 mmHg 48%
    10:00 +8°C° 0 mm 7 m/s 747 mmHg 45%
    11:00 +10°C° 0 mm 7 m/s 747 mmHg 42%
    12:00 +11°C° 0 mm 7 m/s 747 mmHg 43%
    13:00 +11°C° 0 mm 8 m/s 747 mmHg 43%
    14:00 +12°C° 0 mm 8 m/s 746 mmHg 44%
    15:00 +12°C° 0 mm 7 m/s 746 mmHg 46%
    16:00 +11°C° 0 mm 7 m/s 745 mmHg 48%
    17:00 +11°C° 0 mm 6 m/s 745 mmHg 50%
    18:00 +10°C° 0 mm 6 m/s 745 mmHg 52%
    19:00 +9°C° 0 mm 6 m/s 745 mmHg 54%
    20:00 +8°C° 0 mm 6 m/s 745 mmHg 56%
    21:00 +8°C° 0 mm 7 m/s 744 mmHg 56%
    22:00 +6°C° 0 mm 7 m/s 744 mmHg 55%
    23:00 +6°C° 0 mm 7 m/s 744 mmHg 55%
    Voir plus